Hourly Data Report for October 02, 2017

All times are specified in Local Standard Time (LST). Add 1 hour to adjust for Daylight Saving Time where and when it is observed.

HART ISLAND (AUT)
NOVA SCOTIA

45°21'00.000" N
60°59'00.000" W
8.20 m
8202318
71419
WRN

Download Data

Hourly Data (October 2017)
Hourly Data Report for October 2, 2017
Temp Definition
°C
Dew Point Temp Definition
°C
Rel Hum Definition
%
Wind Dir Definition
10's deg

Wind Spd Definition
km/h
Visibility Definition
km
Stn Press Definition
kPa
Hmdx Definition


Wind Chill Definition


Weather Definition


TIME
00:00 10.4 6.9 79 25 10   101.74     LegendNANA
01:00 10.9 6.8 76 27 18   101.73     LegendNANA
02:00 10.3 6.7 78 22 5   101.67     LegendNANA
03:00 10.8 9.1 90 29 10   101.65     LegendNANA
04:00 12.2 9.9 86 29 12   101.69     LegendNANA
05:00 13.3 11.1 87 32 14   101.76     LegendNANA
06:00 13.3 10.9 85 35 22   101.82     LegendNANA
07:00 13.9 10.5 80 36 26   101.87     LegendNANA
08:00 13.8 9.6 76 35 34   101.94     LegendNANA
09:00 14.1 7.4 64 35 38   101.98     LegendNANA
10:00 13.8 5.4 57 33 36   102.02     LegendNANA
11:00 14.7 6.7 59 32 32   102.02     LegendNANA
12:00 14.1 6.0 58 34 33   102.06     LegendNANA
13:00 13.2 4.0 54 34 42   102.10     LegendNANA
14:00 12.6 4.7 59 34 46   102.17     LegendNANA
15:00 12.0 6.0 67 34 44   102.26     LegendNANA
16:00 11.3 4.6 63 34 50   102.32     LegendNANA
17:00 11.0 5.2 68 35 46   102.41     LegendNANA
18:00 10.4 5.9 73 35 50   102.52     LegendNANA
19:00 10.4 6.6 77 35 47   102.63     LegendNANA
20:00 9.6 5.3 75 35 45   102.70     LegendNANA
21:00 9.9 4.8 71 36 51   102.79     LegendNANA
22:00 10.2 4.5 68 35 51   102.82     LegendNANA
23:00 10.3 4.7 69 35 38   102.84     LegendNANA

Notes on Data Quality.

Legend

  • E = Estimated
  • M = Missing
  • NA = Not Available
  • ‡ = Partner data that is not subject to review by the National Climate Archives
Date modified: